Weather History for Denton, TX

Change the Weather History Date:

Friday, March 15, 2013

  Actual Average Record
Temperature  
Mean Temperature 66 °F -  
Max Temperature 81 °F 62 °F 81 °F (2013)
Min Temperature 52 °F 42 °F 25 °F (1999)
Cooling Degree Days 2    
Growing Degree Days 16 (Base 50)    
Moisture  
Dew Point 46 °F    
Average Humidity 51    
Maximum Humidity 86    
Minimum Humidity 24    
Precipitation  
Precipitation 0.00 in - - ()
Sea Level Pressure  
Sea Level Pressure 30.01 in    
Wind  
Wind Speed 12 mph (South)    
Max Wind Speed 21 mph    
Max Gust Speed 28 mph    
Visibility 10 miles    
Events      
Averages and records for this station are not official NWS values.
T = Trace of Precipitation, MM = Missing Value Source: NWS Daily Summary

Daily Weather History Graph

Daily Weather History Graph

Search for Another Location

Airport:

Trip Planner

Search our weather history database for the weather conditions in past years. The results will help you decide how hot, cold, wet, or windy it might be!

Date:

Astronomy

Mar. 15, 2013 Rise Set
Actual Time 7:38 AM CDT 7:36 PM CDT
Civil Twilight 7:14 AM CDT 8:01 PM CDT
Nautical Twilight 6:45 AM CDT 8:30 PM CDT
Astronomical Twilight 6:16 AM CDT 8:59 PM CDT
Moon 9:43 AM CDT (3/15) 11:37 PM CDT (3/15)
Length of Visible Light 12h 47m
Length of Day
11h 58m
Waxing Crescent, 15% of the Moon is Illuminated
Mar 15
Waxing Crescent
Mar 19
First Quarter
Mar 27
Full
Apr 2
Last Quarter
Apr 10
New

Hourly Weather History & Observations

Time (CDT) Temp. Dew Point Humidity Pressure Visibility Wind Dir Wind Speed Gust Speed Precip Events Conditions
12:53 AM 57.9 °F 45.0 °F 62% 30.14 in 10.0 mi South 9.2 mph - N/A   Clear
1:53 AM 57.0 °F 44.1 °F 62% 30.14 in 10.0 mi SSE 10.4 mph - N/A   Clear
2:53 AM 55.9 °F 44.1 °F 64% 30.13 in 10.0 mi SSE 6.9 mph - N/A   Clear
3:53 AM 55.9 °F 45.0 °F 67% 30.11 in 10.0 mi South 8.1 mph - N/A   Clear
4:53 AM 55.9 °F 46.9 °F 72% 30.10 in 10.0 mi South 9.2 mph - N/A   Clear
5:53 AM 55.0 °F 46.9 °F 74% 30.09 in 10.0 mi South 9.2 mph - N/A   Clear
6:53 AM 54.0 °F 48.0 °F 80% 30.10 in 10.0 mi SSE 8.1 mph - N/A   Clear
7:53 AM 52.0 °F 48.0 °F 86% 30.11 in 10.0 mi South 6.9 mph - N/A   Clear
8:53 AM 57.0 °F 50.0 °F 77% 30.11 in 10.0 mi South 9.2 mph - N/A   Clear
9:53 AM 61.0 °F 51.1 °F 70% 30.10 in 10.0 mi SSW 19.6 mph 25.3 mph N/A   Clear
10:53 AM 64.9 °F 51.1 °F 61% 30.10 in 10.0 mi SSW 18.4 mph - N/A   Clear
11:53 AM 70.0 °F 50.0 °F 49% 30.09 in 10.0 mi SSW 18.4 mph 25.3 mph N/A   Clear
12:53 PM 73.0 °F 51.1 °F 46% 30.06 in 10.0 mi South 18.4 mph - N/A   Clear
1:53 PM 75.9 °F 50.0 °F 40% 30.02 in 10.0 mi South 18.4 mph 26.5 mph N/A   Clear
2:53 PM 80.1 °F 46.9 °F 31% 29.97 in 10.0 mi SSW 18.4 mph 27.6 mph N/A   Clear
3:53 PM 81.0 °F 44.1 °F 27% 29.93 in 10.0 mi South 20.7 mph 25.3 mph N/A   Clear
4:53 PM 81.0 °F 41.0 °F 24% 29.91 in 10.0 mi South 20.7 mph 27.6 mph N/A   Clear
5:53 PM 80.1 °F 42.1 °F 26% 29.90 in 10.0 mi South 16.1 mph 26.5 mph N/A   Clear
6:53 PM 78.1 °F 42.1 °F 28% 29.88 in 10.0 mi South 20.7 mph 24.2 mph N/A   Clear
7:53 PM 73.0 °F 43.0 °F 34% 29.88 in 10.0 mi South 15.0 mph - N/A   Clear
8:53 PM 70.0 °F 43.0 °F 38% 29.88 in 10.0 mi South 15.0 mph - N/A   Clear
9:53 PM 70.0 °F 41.0 °F 35% 29.88 in 10.0 mi South 17.3 mph - N/A   Clear
10:53 PM 69.1 °F 41.0 °F 36% 29.86 in 10.0 mi South 16.1 mph - N/A   Clear
11:53 PM 66.9 °F 41.0 °F 39% 29.85 in 10.0 mi South 12.7 mph - N/A   Clear